San Jose, Costa Rica

4:08 PM CST on December 06, 2016 (GMT -0600)
Juan Santamaria International

Weather History for MROC - August, 2013

Change the Weather History Date:

Wednesday, August 21, 2013

  Actual Average Record
Temperature  
Mean Temperature 76 °F -  
Max Temperature 84 °F 80 °F 87 °F (1997)
Min Temperature 68 °F 65 °F 60 °F (1996)
Cooling Degree Days 11    
Growing Degree Days 26 (Base 50)    
Moisture  
Dew Point 65 °F    
Average Humidity 75    
Maximum Humidity 100    
Minimum Humidity 44    
Precipitation  
Precipitation 0.00 in - - ()
Sea Level Pressure  
Sea Level Pressure 29.95 in    
Wind  
Wind Speed 6 mph ()    
Max Wind Speed 10 mph    
Max Gust Speed -    
Visibility 8.1 miles    
Events Fog , Rain    
Averages and records for this station are not official NWS values.
T = Trace of Precipitation, MM = Missing Value Source: Averaged Metar Reports

Daily Weather History Graph

Daily Weather History Graph

Search for Another Location

Airport or City:

Trip Planner

Search our weather history database for the weather conditions in past years. The results will help you decide how hot, cold, wet, or windy it might be!

Date:

Astronomy

Aug. 21, 2013 Rise Set
Actual Time 5:27 AM CST 5:51 PM CST
Civil Twilight 5:06 AM CST 6:13 PM CST
Nautical Twilight 4:41 AM CST 6:38 PM CST
Astronomical Twilight 4:15 AM CST 7:03 PM CST
Moon 6:23 PM CST (8/21) 5:49 AM CST (8/21)
Length of Visible Light 13h 06m
Length of Day
12h 23m
Full, 99% of the Moon is Illuminated
Aug 21
Full
Aug 28
Last Quarter
Sep 5
New
Sep 12
First Quarter
Sep 19
Full

Hourly Weather History & Observations

Time (CST) Temp. Heat Index Dew Point Humidity Pressure Visibility Wind Dir Wind Speed Gust Speed Precip Events Conditions
12:00 AM 70 °F - 61 °F 66% 29.81 in 12 mi NE 5.8 mph - -   Mostly Cloudy
12:00 AM 69.8 °F - 60.8 °F 73% 30.00 in - NE 5.8 mph - N/A   Clear
1:00 AM 69.8 °F - 60.8 °F 73% 29.98 in - ENE 8.1 mph - N/A   Clear
2:00 AM 69.8 °F - 60.8 °F 73% 29.96 in - NNE 3.5 mph - N/A   Clear
3:00 AM 71 °F - 61 °F 62% 29.83 in 12 mi ENE 8.1 mph - -   Mostly Cloudy
3:00 AM 69.8 °F - 60.8 °F 73% 29.96 in - West 8.1 mph - N/A   Clear
4:00 AM 69.8 °F - 60.8 °F 73% 29.96 in - ENE 6.9 mph - N/A   Clear
5:00 AM 69.8 °F - 60.8 °F 73% 29.96 in - NE 10.4 mph - N/A   Clear
6:00 AM 71 °F - 61 °F 62% 29.83 in 12 mi East 5.8 mph - -   Mostly Cloudy
6:00 AM 71.6 °F - 60.8 °F 69% 29.98 in - East 5.8 mph - N/A   Clear
7:00 AM 71.6 °F - 60.8 °F 69% 30.01 in - NNE 4.6 mph - N/A   Clear
8:00 AM 73.4 °F - 62.6 °F 69% 30.02 in 6.2 mi East 6.9 mph - N/A   Mostly Cloudy
9:00 AM 76 °F - 62 °F 53% 29.86 in 12 mi East 9.2 mph - -   Mostly Cloudy
9:00 AM 77.0 °F - 62.6 °F 61% 30.02 in - East 9.2 mph - N/A   Clear
10:00 AM 78.8 °F - 62.6 °F 57% 30.02 in 6.2 mi East 8.1 mph - N/A   Mostly Cloudy
11:00 AM 78.8 °F - 64.4 °F 61% 30.01 in 6.2 mi SSE 4.6 mph - N/A   Mostly Cloudy
12:00 PM 81 °F - 63 °F 44% 29.82 in 12 mi SE 8.1 mph - -   Scattered Clouds
12:00 PM 80.6 °F 81.8 °F 62.6 °F 54% 29.98 in 6.2 mi SE 8.1 mph - N/A   Mostly Cloudy
1:00 PM 78.8 °F - 68.0 °F 69% 29.97 in 6.2 mi WSW 9.2 mph - N/A   Mostly Cloudy
2:00 PM 77.0 °F - 68.0 °F 74% 29.95 in 6.2 mi SW 5.8 mph - N/A   Mostly Cloudy
3:00 PM 76 °F - 70 °F 76% 29.77 in 12 mi WSW 8.1 mph - -   Overcast
3:00 PM 75.2 °F - 69.8 °F 83% 29.94 in 6.2 mi WSW 8.1 mph - N/A   Mostly Cloudy
4:00 PM 75.2 °F - 69.8 °F 83% 29.94 in 6.2 mi West 6.9 mph - N/A   Mostly Cloudy
5:00 PM 73.4 °F - 69.8 °F 88% 29.96 in 6.2 mi WSW 5.8 mph - N/A   Mostly Cloudy
6:00 PM 72 °F - 70 °F 91% 29.82 in 12 mi WSW 5.8 mph - -   Overcast
6:00 PM 71.6 °F - 69.8 °F 94% 29.98 in 6.2 mi WSW 5.8 mph - N/A   Mostly Cloudy
7:00 PM 69.8 °F - 69.8 °F 100% 30.00 in 5.0 mi WSW 4.6 mph - N/A Fog Fog
8:00 PM 69.8 °F - 68.0 °F 94% 30.01 in 6.2 mi WSW 3.5 mph - N/A   Mostly Cloudy
9:00 PM 70 °F - 69 °F 94% 29.86 in 9 mi WSW 4.6 mph - - Rain Light Rain
9:00 PM 69.8 °F - 68.0 °F 94% 30.03 in 6.2 mi WSW 4.6 mph - N/A Rain Light Rain
10:00 PM 69.8 °F - 68.0 °F 94% 30.04 in 6.2 mi NW 2.3 mph - N/A   Mostly Cloudy
11:00 PM 69.8 °F - 68.0 °F 94% 30.02 in - ENE 3.5 mph - N/A   Clear